This demonstration page uses our WeatherBlox Daily Observations layout. Learn more.

Left ArrowRight Arrow

39.01783, -85.05884

Hourly Observations for April 18, 2020

Temp ( °F °C ) Dew Point ( °F °C ) Humidity (%) Winds ( mph kmh ) Pressure ( in mb ) Visibility ( mi km ) Precip ( " mm )
12:52 am 00:52 Cloudy 39 3.9 35 1.7 86 86 NNW 17 28 29.95 1014 8 13 N/A
1:01 am 01:01 Cloudy 39 3.9 35 1.7 86 86 NNW 18 30 29.98 1015 8 13 N/A
1:52 am 01:52 Cloudy 38 3.3 33 0.6 83 83 NNW 17 28 29.96 1015 10 16 N/A
2:52 am 02:52 Cloudy 37 2.8 31 -0.6 79 79 N 17 28 29.98 1015 10 16 N/A
3:52 am 03:52 Cloudy 36 2.2 30 -1.1 79 79 NNW 14 22 29.99 1016 10 16 N/A
4:52 am 04:52 Cloudy 36 2.2 30 -1.1 79 79 NNW 10 17 30.02 1017 10 16 N/A
5:52 am 05:52 Cloudy 37 2.8 28 -2.2 70 70 NNW 12 19 30.05 1018 10 16 N/A
6:52 am 06:52 Cloudy 37 2.8 28 -2.2 70 70 NNW 10 17 30.07 1018 10 16 N/A
7:52 am 07:52 Mostly Cloudy 36 2.2 28 -2.2 73 73 NW 12 19 30.10 1019 10 16 N/A
8:52 am 08:52 Partly Cloudy 38 3.3 29 -1.7 70 70 NW 10 17 30.11 1020 10 16 N/A
9:52 am 09:52 Mostly Sunny 40 4.4 29 -1.7 65 65 VRB 7 11 30.13 1020 8 13 N/A
10:52 am 10:52 Partly Cloudy 43 6.1 31 -0.6 63 63 WNW 5 7 30.13 1020 8 13 N/A
11:52 am 11:52 Partly Cloudy 46 7.8 31 -0.6 56 56 VRB 5 7 30.13 1020 9 14 N/A
12:52 pm 12:52 Partly Cloudy 48 8.9 29 -1.7 48 48 SW 6 9 30.12 1020 10 16 N/A
1:52 pm 13:52 Partly Cloudy 50 10 28 -2.2 43 43 VRB 3 6 30.09 1019 10 16 N/A
2:52 pm 14:52 Mostly Cloudy 52 11.1 31 -0.6 45 45 VRB 3 6 30.06 1018 10 16 N/A
3:52 pm 15:52 Partly Cloudy 53 11.7 30 -1.1 41 41 SW 12 19 30.03 1017 10 16 N/A
4:52 pm 16:52 Mostly Sunny 52 11.1 30 -1.1 43 43 VRB 3 6 29.99 1016 10 16 N/A
5:52 pm 17:52 Mostly Sunny 53 11.7 31 -0.6 43 43 SSW 10 17 29.98 1015 10 16 N/A
6:52 pm 18:52 Mostly Sunny 53 11.7 31 -0.6 43 43 VRB 6 9 29.98 1015 10 16 N/A
7:52 pm 19:52 Sunny 50 10 30 -1.1 46 46 SSW 8 13 29.98 1015 10 16 N/A
8:52 pm 20:52 Mostly Clear 47 8.3 30 -1.1 52 52 SSW 7 11 29.97 1015 10 16 N/A
9:52 pm 21:52 Clear 44 6.7 32 undefined 63 63 S 6 9 29.98 1015 10 16 N/A
10:52 pm 22:52 Clear 43 6.1 31 -0.6 63 63 S 9 15 29.97 1015 10 16 N/A
11:52 pm 23:52 Clear 41 5 31 -0.6 67 67 S 8 13 29.96 1014 10 16 N/A

Powered by AerisWeather